KD8DWO Weather Reports


time (UTC)temp
F
wind
direction
speed
knots
gust
knots
rain 1hr
in
rain 24hr
in
rain mn
in
humidity
%
barometer
mb
20260504151006 65 230 10.4 13.0 0.00 0.00 0.00 55 1006.0
20260504141005 61 241 11.3 11.3 0.00 0.00 0.00 58 1006.3
20260504082005 50 238 0.0 0.0 0.00 0.00 0.00 68 1007.5
20260504081005 50 236 0.0 0.0 0.00 0.00 0.00 67 1007.5
20260504050007 52 224 0.0 0.0 0.00 0.00 0.00 62 1009.7
20260504045005 52 224 0.0 0.0 0.00 0.00 0.00 62 1009.9
20260504044005 52 223 0.0 0.0 0.00 0.00 0.00 64 1010.1
20260504043006 52 219 0.0 0.0 0.00 0.00 0.00 64 1010.1
20260504042006 51 205 0.0 0.0 0.00 0.00 0.00 65 1009.8
20260504040005 51 233 0.0 0.0 0.00 0.00 0.00 65 1010.4
20260504035006 51 218 0.0 0.0 0.00 0.00 0.00 65 1010.4
20260504034004 51 202 0.0 0.0 0.00 0.00 0.00 65 1010.4
20260504033005 51 223 0.0 0.0 0.00 0.00 0.00 65 1010.5
20260504031004 51 243 0.0 0.0 0.00 0.00 0.00 66 1010.7
20260504030005 51 231 0.0 0.0 0.00 0.00 0.00 66 1010.7
20260504025005 51 235 0.0 0.0 0.00 0.00 0.00 66 1011.0
20260504024005 51 229 0.0 0.0 0.00 0.00 0.00 68 1011.1
20260504023005 51 233 0.0 0.0 0.00 0.00 0.00 69 1011.0
20260504021005 50 209 0.0 0.0 0.00 0.00 0.00 69 1011.0
20260504020005 50 228 0.0 0.0 0.00 0.00 0.00 69 1011.2
20260504015005 50 228 0.0 0.0 0.00 0.00 0.00 68 1011.1
20260504014005 51 231 0.0 0.0 0.00 0.00 0.00 67 1011.1
20260504013004 51 238 0.0 0.0 0.00 0.00 0.00 66 1011.3
20260504012004 51 238 0.0 0.0 0.00 0.00 0.00 65 1011.1
20260504011005 52 233 0.0 0.0 0.00 0.00 0.00 65 1011.2
20260504010005 52 241 0.0 0.0 0.00 0.00 0.00 64 1011.6
20260504005006 52 242 0.0 0.0 0.00 0.00 0.00 64 1011.5
20260504004005 52 247 0.0 0.0 0.00 0.00 0.00 64 1011.4
20260504003005 52 248 0.0 0.0 0.00 0.00 0.00 64 1011.4
20260504002004 52 240 0.9 6.1 0.00 0.00 0.00 63 1011.4
20260504001004 53 237 5.2 8.7 0.00 0.00 0.00 62 1011.5
20260504000004 53 253 7.8 8.7 0.00 0.00 0.00 61 1011.7
20260503235004 53 237 6.1 8.7 0.00 0.00 0.00 61 1011.7
20260503233005 53 237 7.8 13.9 0.00 0.00 0.00 60 1011.9
20260503232005 53 240 14.8 20.9 0.00 0.00 0.00 57 1012.0
20260503231004 54 233 13.9 15.6 0.00 0.00 0.00 57 1012.2
20260503230004 54 239 11.3 14.8 0.00 0.00 0.00 58 1012.2
20260503225004 55 234 14.8 18.2 0.00 0.00 0.00 56 1012.2
20260503223005 58 241 15.6 20.9 0.00 0.00 0.00 49 1012.2
20260503222005 58 236 21.7 25.2 0.00 0.00 0.00 47 1012.0
20260503221004 59 236 21.7 25.2 0.00 0.00 0.00 45 1011.9
20260503220004 61 246 19.1 27.8 0.00 0.00 0.00 40 1011.7
20260503214004 61 243 18.2 27.8 0.00 0.00 0.00 34 1011.5
20260503213005 61 240 17.4 24.3 0.00 0.00 0.00 35 1011.8
20260503212004 61 250 20.9 20.0 0.00 0.00 0.00 34 1011.7
20260503211004 61 233 15.6 19.1 0.00 0.00 0.00 34 1011.7
20260503205004 62 238 19.1 20.0 0.00 0.00 0.00 31 1011.9
20260503204005 62 240 22.6 26.1 0.00 0.00 0.00 31 1012.1
20260503203004 62 232 19.1 24.3 0.00 0.00 0.00 29 1012.0
20260503202004 62 238 14.8 18.2 0.00 0.00 0.00 33 1012.1
20260503201005 62 239 20.0 25.2 0.00 0.00 0.00 30 1012.4
20260503195005 64 221 14.8 22.6 0.00 0.00 0.00 29 1012.3
20260503194005 63 236 14.8 24.3 0.00 0.00 0.00 30 1012.4
20260503193004 63 228 11.3 24.3 0.00 0.00 0.00 31 1012.7
20260503192004 63 234 18.2 22.6 0.00 0.00 0.00 31 1012.7
20260503190004 62 223 14.8 20.0 0.00 0.00 0.00 30 1013.1
20260503185005 63 240 14.8 24.3 0.00 0.00 0.00 32 1013.2
20260503184004 63 236 19.1 19.1 0.00 0.00 0.00 29 1013.4
20260503183004 63 237 17.4 25.2 0.00 0.00 0.00 29 1013.4
20260503182005 62 240 17.4 20.0 0.00 0.00 0.00 29 1013.4
20260503181005 62 236 20.9 24.3 0.00 0.00 0.00 31 1013.5
20260503180005 62 232 14.8 22.6 0.00 0.00 0.00 32 1013.7
20260503175004 62 240 15.6 22.6 0.00 0.00 0.00 28 1014.0
20260503174006 62 238 18.2 25.2 0.00 0.00 0.00 29 1014.2
20260503173004 62 232 19.1 26.1 0.00 0.00 0.00 27 1014.2
20260503172005 62 236 18.2 24.3 0.00 0.00 0.00 32 1014.4